DW9080 Weather Reports


time (UTC)temp
C
wind
direction
speed
KPH
gust
KPH
rain 1hr
cm
rain 24hr
cm
rain mn
cm
humidity
%
barometer
mb
20260510211542 27 246 1.6 12.9 0.00 0.00 0.00 32 1001.7
20260510211042 27 359 3.2 14.5 0.00 0.00 0.00 32 1001.7
20260510210542 27 311 3.2 25.7 0.00 0.00 0.00 32 1001.7
20260510210023 27 20 4.8 25.7 0.00 0.00 0.00 32 1001.7
20260510205523 27 345 4.8 14.5 0.00 0.00 0.00 31 1001.7
20260510205022 27 49 1.6 14.5 0.00 0.00 0.00 31 1001.7
20260510204521 27 323 0.0 20.9 0.00 0.00 0.00 32 1001.9
20260510204021 27 105 4.8 20.9 0.00 0.00 0.00 34 1001.9
20260510203521 27 60 4.8 17.7 0.00 0.00 0.00 35 1001.8
20260510203003 27 3 0.0 4.8 0.00 0.00 0.00 36 1002.0
20260510202502 28 51 0.0 1.6 0.00 0.00 0.00 33 1002.1
20260510202002 28 271 0.0 1.6 0.00 0.00 0.00 33 1002.1
20260510201602 28 255 0.0 1.6 0.00 0.00 0.00 32 1002.2
20260510201002 28 274 0.0 1.6 0.00 0.00 0.00 34 1002.2
20260510200600 27 211 0.0 1.6 0.00 0.00 0.00 33 1002.3
20260510200043 27 238 0.0 1.6 0.00 0.00 0.00 34 1002.3
20260510195544 27 251 0.0 1.6 0.00 0.00 0.00 35 1002.5
20260510195042 27 256 0.0 1.6 0.00 0.00 0.00 34 1002.6
20260510194542 27 240 0.0 1.6 0.00 0.00 0.00 34 1002.5
20260510194039 28 256 0.0 1.6 0.00 0.00 0.00 34 1002.6
20260510193542 27 252 0.0 1.6 0.00 0.00 0.00 35 1002.6
20260510193026 27 239 0.0 1.6 0.00 0.00 0.00 35 1002.7
20260510192525 28 240 0.0 1.6 0.00 0.00 0.00 33 1002.8
20260510192025 27 256 0.0 1.6 0.00 0.00 0.00 34 1002.8
20260510191525 28 226 0.0 1.6 0.00 0.00 0.00 35 1002.9
20260510191024 28 243 0.0 4.8 0.00 0.00 0.00 34 1003.0
20260510190522 27 310 0.0 8.0 0.00 0.00 0.00 36 1003.2
20260510190028 28 37 0.0 1.6 0.00 0.00 0.00 35 1003.4
20260510185521 28 60 0.0 3.2 0.00 0.00 0.00 35 1003.4
20260510185021 27 243 0.0 3.2 0.00 0.00 0.00 36 1003.5
20260510184520 27 250 0.0 1.6 0.00 0.00 0.00 36 1003.5
20260510184021 28 262 0.0 1.6 0.00 0.00 0.00 35 1003.6
20260510183518 28 294 0.0 1.6 0.00 0.00 0.00 35 1003.6
20260510183117 27 255 0.0 1.6 0.00 0.00 0.00 37 1003.7
20260510182515 27 290 0.0 1.6 0.00 0.00 0.00 35 1003.7
20260510182016 28 236 0.0 1.6 0.00 0.00 0.00 35 1003.8
20260510181515 28 277 0.0 1.6 0.00 0.00 0.00 35 1003.9
20260510181015 28 241 0.0 1.6 0.00 0.00 0.00 36 1004.0
20260510180514 27 288 0.0 1.6 0.00 0.00 0.00 36 1004.1
20260510180011 27 288 0.0 1.6 0.00 0.00 0.00 36 1004.2
20260510175512 27 256 0.0 4.8 0.00 0.00 0.00 35 1004.3
20260510175010 27 252 0.0 4.8 0.00 0.00 0.00 36 1004.4
20260510174513 27 359 0.0 9.7 0.00 0.00 0.00 37 1004.5
20260510174008 27 246 0.0 9.7 0.00 0.00 0.00 37 1004.5
20260510173506 26 250 0.0 1.6 0.00 0.00 0.00 37 1004.6
20260510173005 26 236 0.0 9.7 0.00 0.00 0.00 38 1004.7
20260510172548 26 262 0.0 9.7 0.00 0.00 0.00 38 1004.8
20260510172048 26 245 0.0 1.6 0.00 0.00 0.00 39 1004.7
20260510171546 25 259 0.0 4.8 0.00 0.00 0.00 40 1005.0
20260510171045 25 300 0.0 9.7 0.00 0.00 0.00 39 1005.0
20260510170545 25 236 0.0 14.5 0.00 0.00 0.00 40 1005.0
20260510170048 25 248 3.2 14.5 0.00 0.00 0.00 40 1005.1
20260510165527 25 250 0.0 1.6 0.00 0.00 0.00 41 1005.0
20260510165029 25 221 0.0 1.6 0.00 0.00 0.00 42 1005.2
20260510164543 25 233 0.0 1.6 0.00 0.00 0.00 43 1005.2
20260510164024 25 228 0.0 1.6 0.00 0.00 0.00 45 1005.3
20260510163524 24 219 0.0 1.6 0.00 0.00 0.00 44 1005.4
20260510163024 24 260 0.0 1.6 0.00 0.00 0.00 44 1005.3
20260510162504 24 246 0.0 1.6 0.00 0.00 0.00 44 1005.4
20260510162006 23 249 0.0 1.6 0.00 0.00 0.00 46 1005.4
20260510161502 23 253 0.0 1.6 0.00 0.00 0.00 45 1005.5
20260510161002 23 250 0.0 1.6 0.00 0.00 0.00 47 1005.6
20260510160600 23 253 0.0 1.6 0.00 0.00 0.00 47 1005.6
20260510160107 23 251 0.0 1.6 0.00 0.00 0.00 49 1005.5
20260510155540 22 226 0.0 1.6 0.00 0.00 0.00 49 1005.4
20260510155039 22 246 0.0 1.6 0.00 0.00 0.00 50 1005.5
20260510154541 22 258 0.0 1.6 0.00 0.00 0.00 49 1005.5
20260510154039 22 258 0.0 1.6 0.00 0.00 0.00 48 1005.5
20260510153538 22 240 0.0 1.6 0.00 0.00 0.00 49 1005.5
20260510153037 22 256 0.0 1.6 0.00 0.00 0.00 49 1005.5
20260510152520 22 238 0.0 1.6 0.00 0.00 0.00 48 1005.5
20260510152020 22 197 0.0 1.6 0.00 0.00 0.00 49 1005.4
20260510151518 21 232 0.0 1.6 0.00 0.00 0.00 48 1005.4
20260510151018 22 231 0.0 1.6 0.00 0.00 0.00 48 1005.4
20260510150517 21 251 0.0 1.6 0.00 0.00 0.00 48 1005.2
20260510150017 21 243 0.0 1.6 0.00 0.00 0.00 48 1005.2
20260510145701 21 263 0.0 1.6 0.00 0.00 0.00 48 1005.2
20260510145058 21 246 0.0 1.6 0.00 0.00 0.00 47 1005.2
20260510144558 21 253 0.0 1.6 0.00 0.00 0.00 48 1005.2
20260510144058 21 270 0.0 1.6 0.00 0.00 0.00 47 1005.2
20260510143555 21 242 0.0 1.6 0.00 0.00 0.00 47 1005.3
20260510143056 21 222 0.0 1.6 0.00 0.00 0.00 46 1005.1
20260510142541 21 225 0.0 1.6 0.00 0.00 0.00 47 1005.1
20260510142036 21 232 0.0 1.6 0.00 0.00 0.00 48 1005.0
20260510141537 21 256 0.0 1.6 0.00 0.00 0.00 48 1004.9
20260510141034 21 253 0.0 1.6 0.00 0.00 0.00 48 1004.9
20260510140533 20 239 0.0 1.6 0.00 0.00 0.00 50 1004.8
20260510140030 20 257 0.0 1.6 0.00 0.00 0.00 52 1004.8
20260510135511 20 246 0.0 0.0 0.00 0.00 0.00 53 1004.7
20260510135010 19 256 0.0 0.0 0.00 0.00 0.00 59 1004.7
20260510134509 18 70 0.0 0.0 0.00 0.00 0.00 64 1004.6
20260510134006 17 70 0.0 0.0 0.00 0.00 0.00 65 1004.6
20260510133507 17 71 0.0 0.0 0.00 0.00 0.00 66 1004.5
20260510133004 17 77 0.0 0.0 0.00 0.00 0.00 66 1004.4
20260510132546 17 76 0.0 0.0 0.00 0.00 0.00 68 1004.3
20260510132048 16 79 0.0 0.0 0.00 0.00 0.00 69 1004.2
20260510131544 16 64 0.0 0.0 0.00 0.00 0.00 69 1004.2
20260510131041 16 69 0.0 0.0 0.00 0.00 0.00 70 1004.2
20260510130542 16 68 0.0 0.0 0.00 0.00 0.00 70 1004.1
20260510130039 -17 60 0.0 0.0 0.00 0.00 0.00 1004.0
20260510125521 -17 0.0 0.0 0.00 0.00 0.00 1004.0
20260510125020 -17 0.0 0.0 0.00 0.00 0.00 1004.0
20260510124521 -17 0.0 0.0 0.00 0.00 0.00 1004.0
20260510124019 -17 0.0 0.0 0.00 0.00 0.00 1003.9
20260510123517 -17 0.0 0.0 0.00 0.00 0.00 1003.8
20260510123015 -17 0.0 0.0 0.00 0.00 0.00 1003.7
20260510122514 -17 0.0 0.0 0.00 0.00 0.00 1003.7
20260510122012 -17 0.0 0.0 0.00 0.00 0.00 1003.6
20260510121510 -17 0.0 0.0 0.00 0.00 0.00 1003.5
20260510121011 -17 0.0 0.0 0.00 0.00 0.00 1003.4
20260510120508 -17 0.0 0.0 0.00 0.00 0.00 1003.4
20260510120007 -17 0.0 0.0 0.00 0.00 0.00 1003.2
20260510115507 -17 0.0 0.0 0.00 0.00 0.00 1003.2
20260510115004 -17 0.0 0.0 0.00 0.00 0.00 1003.3
20260510114504 -17 0.0 0.0 0.00 0.00 0.00 1003.2
20260510114101 -17 0.0 0.0 0.00 0.00 0.00 1003.2
20260510113559 -17 0.0 0.0 0.00 0.00 0.00 1003.1
20260510113105 -17 0.0 0.0 0.00 0.00 0.00 1002.9
20260510112058 -17 0.0 0.0 0.00 0.00 0.00 1002.9
20260510111622 -17 0.0 0.0 0.00 0.00 0.00 1002.8
20260510111055 -17 0.0 0.0 0.00 0.00 0.00 1002.7
20260510110552 -17 0.0 0.0 0.00 0.00 0.00 1002.8
20260510110052 -17 0.0 0.0 0.00 0.00 0.00 1002.7
20260510105550 -17 0.0 0.0 0.00 0.00 0.00 1002.6
20260510105049 -17 0.0 0.0 0.00 0.00 0.00 1002.7
20260510104602 -17 0.0 0.0 0.00 0.00 0.00 1002.7
20260510104046 -17 0.0 0.0 0.00 0.00 0.00 1002.6
20260510103545 -17 0.0 0.0 0.00 0.00 0.00 1002.6
20260510103043 -17 0.0 0.0 0.00 0.00 0.00 1002.6
20260510102043 -17 0.0 0.0 0.00 0.00 0.00 1002.6
20260510101542 -17 0.0 0.0 0.00 0.00 0.00 1002.5
20260510101043 -17 0.0 0.0 0.00 0.00 0.00 1002.5
20260510100542 -17 0.0 0.0 0.00 0.00 0.00 1002.5
20260510100040 -17 0.0 0.0 0.00 0.00 0.00 1002.5
20260510095536 -17 0.0 0.0 0.00 0.00 0.00 1002.6
20260510095036 -17 0.0 0.0 0.00 0.00 0.00 1002.5
20260510094533 -17 0.0 0.0 0.00 0.00 0.00 1002.4
20260510094031 -17 0.0 0.0 0.00 0.00 0.00 1002.5
20260510093530 -17 0.0 0.0 0.00 0.00 0.00 1002.4
20260510093028 -17 0.0 0.0 0.00 0.00 0.00 1002.4
20260510092029 -17 0.0 0.0 0.00 0.00 0.00 1002.5
20260510091546 16 233 0.0 0.0 0.00 0.00 0.00 65 1002.4
20260510091028 16 233 0.0 0.0 0.00 0.00 0.00 65 1002.5
20260510090527 16 234 0.0 0.0 0.00 0.00 0.00 65 1002.4
20260510090027 17 233 0.0 0.0 0.00 0.00 0.00 65 1002.4
20260510085528 17 233 0.0 0.0 0.00 0.00 0.00 65 1002.5
20260510085026 17 233 0.0 0.0 0.00 0.00 0.00 64 1002.5
20260510084528 17 233 0.0 0.0 0.00 0.00 0.00 63 1002.5
20260510084028 18 233 0.0 0.0 0.00 0.00 0.00 63 1002.5
20260510083527 18 233 0.0 0.0 0.00 0.00 0.00 62 1002.5
20260510083026 18 233 0.0 0.0 0.00 0.00 0.00 60 1002.5
20260510082526 18 233 0.0 0.0 0.00 0.00 0.00 60 1002.5
20260510082026 18 233 0.0 0.0 0.00 0.00 0.00 60 1002.5
20260510081536 18 233 0.0 0.0 0.00 0.00 0.00 60 1002.5
20260510081026 18 233 0.0 0.0 0.00 0.00 0.00 60 1002.7
20260510080526 18 233 0.0 0.0 0.00 0.00 0.00 61 1002.8
20260510080025 18 233 0.0 0.0 0.00 0.00 0.00 61 1002.8
20260510075525 18 233 0.0 0.0 0.00 0.00 0.00 61 1002.8
20260510075007 18 233 0.0 0.0 0.00 0.00 0.00 61 1002.8
20260510074509 19 233 0.0 0.0 0.00 0.00 0.00 60 1002.9
20260510074011 19 233 0.0 0.0 0.00 0.00 0.00 60 1002.9
20260510073509 19 233 0.0 0.0 0.00 0.00 0.00 60 1003.0
20260510073006 19 233 0.0 0.0 0.00 0.00 0.00 59 1003.1
20260510072507 19 233 0.0 0.0 0.00 0.00 0.00 58 1003.2
20260510072052 20 233 0.0 0.0 0.00 0.00 0.00 57 1003.2
20260510071549 20 233 0.0 0.0 0.00 0.00 0.00 56 1003.1
20260510071048 20 233 0.0 0.0 0.00 0.00 0.00 55 1003.0
20260510070549 20 229 0.0 1.6 0.00 0.00 0.00 54 1003.0
20260510070050 20 252 0.0 1.6 0.00 0.00 0.00 51 1003.0
20260510065549 21 55 0.0 0.0 0.00 0.00 0.00 51 1002.8
20260510065031 21 120 0.0 1.6 0.00 0.00 0.00 51 1002.8
20260510064553 21 120 0.0 1.6 0.00 0.00 0.00 51 1002.8
20260510064030 21 67 0.0 1.6 0.00 0.00 0.00 51 1002.8
20260510063531 21 117 0.0 1.6 0.00 0.00 0.00 52 1002.8
20260510063039 21 96 0.0 0.0 0.00 0.00 0.00 53 1002.8
20260510062530 21 70 0.0 0.0 0.00 0.00 0.00 53 1002.8
20260510062012 21 57 0.0 0.0 0.00 0.00 0.00 53 1002.9
20260510061524 21 77 0.0 0.0 0.00 0.00 0.00 54 1002.9
20260510061012 21 61 0.0 0.0 0.00 0.00 0.00 54 1003.1
20260510060512 21 67 0.0 0.0 0.00 0.00 0.00 54 1003.1
20260510060026 21 63 0.0 0.0 0.00 0.00 0.00 54 1003.0
20260510055511 21 67 0.0 0.0 0.00 0.00 0.00 54 1003.2
20260510055054 21 67 0.0 0.0 0.00 0.00 0.00 54 1003.3
20260510054553 21 66 0.0 0.0 0.00 0.00 0.00 55 1003.3
20260510054052 21 67 0.0 1.6 0.00 0.00 0.00 54 1003.3
20260510053553 21 46 0.0 1.6 0.00 0.00 0.00 54 1003.4
20260510053053 21 56 0.0 3.2 0.00 0.00 0.00 54 1003.4
20260510052552 21 81 0.0 3.2 0.00 0.00 0.00 54 1003.5
20260510052038 21 91 0.0 1.6 0.00 0.00 0.00 55 1003.6
20260510051535 21 69 0.0 3.2 0.00 0.00 0.00 54 1003.7
20260510051035 21 66 0.0 3.2 0.00 0.00 0.00 54 1003.8
20260510050534 21 61 0.0 3.2 0.00 0.00 0.00 53 1003.8
20260510050034 21 63 0.0 1.6 0.00 0.00 0.00 53 1003.8
20260510045534 21 57 0.0 6.4 0.00 0.00 0.00 51 1003.9
20260510045022 22 63 0.0 6.4 0.00 0.00 0.00 50 1004.0
20260510044515 22 82 0.0 3.2 0.00 0.00 0.00 49 1004.0
20260510044016 22 62 0.0 1.6 0.00 0.00 0.00 48 1004.0
20260510043516 22 63 0.0 1.6 0.00 0.00 0.00 47 1004.0
20260510043014 22 63 0.0 0.0 0.00 0.00 0.00 48 1003.9
20260510042514 22 129 0.0 0.0 0.00 0.00 0.00 47 1003.9
20260510042057 22 67 0.0 0.0 0.00 0.00 0.00 47 1003.7
20260510041606 22 57 0.0 0.0 0.00 0.00 0.00 48 1003.6
20260510041054 22 114 0.0 0.0 0.00 0.00 0.00 48 1003.5
20260510040556 22 114 0.0 1.6 0.00 0.00 0.00 47 1003.4
20260510040054 22 183 0.0 1.6 0.00 0.00 0.00 47 1003.4
20260510035552 22 39 0.0 1.6 0.00 0.00 0.00 46 1003.4
20260510035035 22 74 0.0 1.6 0.00 0.00 0.00 45 1003.4
20260510034534 22 240 0.0 0.0 0.00 0.00 0.00 41 1003.3
20260510034033 22 236 0.0 1.6 0.00 0.00 0.00 40 1003.0
20260510033531 22 245 0.0 1.6 0.00 0.00 0.00 40 1002.9
20260510033031 22 163 0.0 1.6 0.00 0.00 0.00 40 1002.8
20260510032531 22 252 0.0 1.6 0.00 0.00 0.00 40 1002.8
20260510032014 23 236 0.0 1.6 0.00 0.00 0.00 39 1002.7
20260510031514 23 235 0.0 1.6 0.00 0.00 0.00 39 1002.6
20260510031015 23 221 0.0 1.6 0.00 0.00 0.00 39 1002.5
20260510030513 23 226 0.0 1.6 0.00 0.00 0.00 39 1002.5
20260510030013 23 251 0.0 1.6 0.00 0.00 0.00 39 1002.4
20260510025518 23 222 0.0 1.6 0.00 0.00 0.00 39 1002.4
20260510025116 23 258 0.0 1.6 0.00 0.00 0.00 39 1002.3
20260510024557 23 228 0.0 1.6 0.00 0.00 0.00 38 1002.3
20260510024055 23 259 0.0 1.6 0.00 0.00 0.00 38 1002.2
20260510023558 23 231 0.0 1.6 0.00 0.00 0.00 38 1002.2
20260510023055 23 236 0.0 1.6 0.00 0.00 0.00 38 1002.1
20260510022559 23 232 0.0 1.6 0.00 0.00 0.00 38 1002.0
20260510022056 23 232 0.0 1.6 0.00 0.00 0.00 39 1001.9
20260510021535 22 255 0.0 1.6 0.00 0.00 0.00 39 1001.7
20260510021135 22 253 0.0 1.6 0.00 0.00 0.00 40 1001.7
20260510020535 22 236 0.0 1.6 0.00 0.00 0.00 42 1001.5
20260510020035 22 215 0.0 1.6 0.00 0.00 0.00 42 1001.5
20260510015536 22 224 0.0 3.2 0.00 0.00 0.00 43 1001.5
20260510015035 22 241 0.0 3.2 0.00 0.00 0.00 42 1001.4
20260510014528 22 240 0.0 1.6 0.00 0.00 0.00 42 1001.4
20260510014022 22 219 0.0 1.6 0.00 0.00 0.00 41 1001.4
20260510013524 22 214 0.0 1.6 0.00 0.00 0.00 41 1001.3
20260510013023 22 214 0.0 1.6 0.00 0.00 0.00 41 1001.2
20260510012522 22 228 0.0 1.6 0.00 0.00 0.00 42 1001.1
20260510012022 22 226 0.0 1.6 0.00 0.00 0.00 43 1000.9
20260510011523 22 229 0.0 1.6 0.00 0.00 0.00 43 1000.8
20260510011021 22 224 0.0 1.6 0.00 0.00 0.00 44 1000.7
20260510010522 22 219 0.0 1.6 0.00 0.00 0.00 44 1000.6
20260510010022 22 226 0.0 1.6 0.00 0.00 0.00 45 1000.7
20260510005521 22 229 0.0 16.1 0.00 0.00 0.00 46 1000.6
20260510005022 22 200 3.2 16.1 0.00 0.00 0.00 45 1000.5
20260510004521 22 218 0.0 1.6 0.00 0.00 0.00 43 1000.4
20260510004025 22 253 0.0 8.0 0.00 0.00 0.00 42 1000.3
20260510003530 23 248 0.0 8.0 0.00 0.00 0.00 42 1000.2
20260510003020 23 188 0.0 1.6 0.00 0.00 0.00 41 1000.2
20260510002519 23 236 0.0 20.9 0.00 0.00 0.00 42 1000.0
20260510002020 23 250 8.0 22.5 0.00 0.00 0.00 42 999.9
20260510001551 23 225 9.7 24.1 0.00 0.00 0.00 42 999.9
20260510001019 23 256 12.9 24.1 0.00 0.00 0.00 42 1000.0
20260510000517 23 250 14.5 27.4 0.00 0.00 0.00 43 1000.1
20260510000018 23 255 8.0 27.4 0.00 0.00 0.00 43 1000.1
20260509235619 23 264 3.2 24.1 0.00 0.00 0.00 42 1000.2
20260509235017 24 211 12.9 24.1 0.00 0.00 0.00 40 1000.2
20260509234628 25 219 0.0 3.2 0.00 0.00 0.00 37 1000.1
20260509234102 25 233 0.0 1.6 0.00 0.00 0.00 34 1000.0
20260509233601 25 259 0.0 0.0 0.00 0.00 0.00 34 999.5
20260509233100 25 291 0.0 0.0 0.00 0.00 0.00 34 999.4
20260509232603 25 288 0.0 0.0 0.00 0.00 0.00 33 999.4
20260509232059 25 286 0.0 0.0 0.00 0.00 0.00 34 999.2
20260509231601 26 286 0.0 0.0 0.00 0.00 0.00 33 999.1
20260509231045 26 346 0.0 1.6 0.00 0.00 0.00 32 999.0
20260509230542 26 285 0.0 1.6 0.00 0.00 0.00 32 998.9
20260509230043 26 11 0.0 1.6 0.00 0.00 0.00 31 998.9
20260509225541 26 246 0.0 17.7 0.00 0.00 0.00 31 998.8
20260509225041 26 278 0.0 20.9 0.00 0.00 0.00 29 998.9
20260509224526 26 256 0.0 1.6 0.00 0.00 0.00 30 999.0
20260509224024 26 249 0.0 1.6 0.00 0.00 0.00 31 998.9
20260509223523 26 255 0.0 1.6 0.00 0.00 0.00 32 998.9
20260509223024 26 263 0.0 3.2 0.00 0.00 0.00 30 999.0
20260509222524 26 262 0.0 9.7 0.00 0.00 0.00 30 998.9
20260509222022 26 229 1.6 14.5 0.00 0.00 0.00 30 998.8
20260509221505 26 226 6.4 25.7 0.00 0.00 0.00 31 998.8
20260509221107 26 246 11.3 25.7 0.00 0.00 0.00 31 998.7
20260509220504 27 248 8.0 27.4 0.00 0.00 0.00 29 998.6
20260509220006 28 240 8.0 27.4 0.00 0.00 0.00 25 998.5
20260509215503 28 239 0.0 20.9 0.00 0.00 0.00 25 998.4
20260509215003 27 252 3.2 24.1 0.00 0.00 0.00 28 998.4
20260509214550 27 246 12.9 24.1 0.00 0.00 0.00 29 998.5
20260509214049 28 246 0.0 1.6 0.00 0.00 0.00 28 998.6
20260509213549 28 248 0.0 1.6 0.00 0.00 0.00 28 998.6
20260509213051 28 241 0.0 1.6 0.00 0.00 0.00 27 998.7
20260509212549 28 221 0.0 1.6 0.00 0.00 0.00 29 998.7
20260509212049 28 252 0.0 1.6 0.00 0.00 0.00 29 998.6